Location: Hilton Head Island
(32.2163°N, 80.7526°W)
Time: 04:16:41
(UTC-05:00)

Explorer 11/Cluster Stage 4 - Visible Passes

Search period start: 19 February 2026 00:00
Search period end: 01 March 2026 00:00
Orbit: 463 x 1177 km, 28.8° (Epoch: 18 February)

Date Brightness Start Highest point End Pass type
(mag) Time Alt. Az. Time Alt. Az. Time Alt. Az.
26 Feb 9.9 06:21:42 10° SSE 06:23:25 11° SSE 06:25:06 10° SE visible
27 Feb 9.8 05:56:32 10° SSE 05:58:54 12° SSE 06:01:14 10° SE visible
28 Feb 9.7 05:31:34 10° S 05:34:22 12° SSE 05:37:07 10° SE visible
